Voltar ao catálogo

STARLINK-34358

AtivoComunicaçõesVLEO
NORAD 64313·PAYLOAD·🇺🇸 United States

Lançado Jun 8, 2025 de Vandenberg Space Force Base

Loading…

Próximas Passagens (próximas 24 horas)

TLE

AtualizadoSource: CelesTrak SupGP

Época: Sep 15, 2026, 03:06 UTC

1 64313C 25123Y   26258.12965278 -.00052905  00000+0 -18400-2 0  2588
2 64313  69.9998  75.3237 0003046 276.6238  29.7289 15.29612785    17

Acompanhe STARLINK-34358 em tempo real com AllMySat

Download on the App Store